Time,TemperatureF,DewpointF,PressureIn,WindDirection,WindDirectionDegrees,WindSpeedMPH,WindSpeedGustMPH,Humidity,HourlyPrecipIn,Conditions,Clouds,dailyrainin,SolarRadiationWatts/m^2,SoftwareType,DateUTC
2013-01-24 00:01:00,61.5,59.8,30.23,SW,221,3.5,3.5,94,0.00,CLR,SKC,0.00,0.0,WeatherDisplay:10.37,2013-01-24 06:01:00,
2013-01-24 00:06:00,61.5,59.8,30.23,SSE,162,2.3,2.3,94,0.00,CLR,SKC,0.00,0.0,WeatherDisplay:10.37,2013-01-24 06:06:00,
2013-01-24 00:11:00,61.5,60.1,30.23,South,184,3.5,3.5,95,0.00,CLR,SKC,0.00,0.0,WeatherDisplay:10.37,2013-01-24 06:11:00,
2013-01-24 00:16:00,61.6,60.2,30.23,ESE,122,3.5,3.5,95,0.00,CLR,SKC,0.00,0.0,WeatherDisplay:10.37,2013-01-24 06:16:00,
2013-01-24 00:21:00,61.6,60.2,30.23,South,181,3.5,3.5,95,0.00,CLR,SKC,0.00,0.0,WeatherDisplay:10.37,2013-01-24 06:21:00,
2013-01-24 00:26:00,61.5,60.1,30.22,SE,138,2.3,2.3,95,0.00,CLR,SKC,0.00,0.0,WeatherDisplay:10.37,2013-01-24 06:26:00,
2013-01-24 00:31:00,61.5,60.1,30.22,SW,219,3.5,3.5,95,0.00,CLR,SKC,0.00,0.0,WeatherDisplay:10.37,2013-01-24 06:31:00,
2013-01-24 00:36:00,61.5,60.1,30.22,SSW,213,4.6,4.6,95,0.00,CLR,SKC,0.00,0.0,WeatherDisplay:10.37,2013-01-24 06:36:00,
2013-01-24 00:41:00,61.5,60.1,30.22,SE,132,5.8,5.8,95,0.00,CLR,SKC,0.00,0.0,WeatherDisplay:10.37,2013-01-24 06:41:00,
2013-01-24 00:46:00,61.5,60.1,30.22,SSW,213,5.0,5.0,95,0.00,CLR,SKC,0.00,0.0,WeatherDisplay:10.37,2013-01-24 06:46:00,
2013-01-24 00:51:00,61.5,60.1,30.22,SSE,161,3.5,3.5,95,0.00,CLR,SKC,0.00,0.0,WeatherDisplay:10.37,2013-01-24 06:51:00,
2013-01-24 00:56:00,61.4,60.0,30.22,SSE,159,1.1,1.1,95,0.00,CLR,SKC,0.00,0.0,WeatherDisplay:10.37,2013-01-24 06:56:00,
2013-01-24 01:01:00,61.4,60.0,30.22,South,171,1.1,1.1,95,0.00,CLR,SKC,0.00,0.0,WeatherDisplay:10.37,2013-01-24 07:01:00,
2013-01-24 01:06:00,61.3,59.9,30.22,SSE,162,3.5,3.5,95,0.00,CLR,SKC,0.00,0.0,WeatherDisplay:10.37,2013-01-24 07:06:00,
2013-01-24 01:11:00,61.3,59.9,30.22,South,174,3.5,3.5,95,0.00,CLR,SKC,0.00,0.0,WeatherDisplay:10.37,2013-01-24 07:11:00,
2013-01-24 01:16:00,61.2,59.8,30.22,South,180,2.0,2.0,95,0.00,CLR,SKC,0.00,0.0,WeatherDisplay:10.37,2013-01-24 07:16:00,
2013-01-24 01:21:00,61.1,59.7,30.22,SE,134,1.1,1.9,95,0.00,CLR,SKC,0.00,0.0,WeatherDisplay:10.37,2013-01-24 07:21:00,
2013-01-24 01:26:00,61.1,59.7,30.22,South,180,2.3,2.3,95,0.00,CLR,SKC,0.00,0.0,WeatherDisplay:10.37,2013-01-24 07:26:00,
2013-01-24 01:31:00,61.0,59.6,30.22,South,175,2.3,2.3,95,0.00,CLR,SKC,0.00,0.0,WeatherDisplay:10.37,2013-01-24 07:31:00,
2013-01-24 01:36:00,61.0,59.6,30.22,SSW,203,3.5,3.5,95,0.00,CLR,SKC,0.00,0.0,WeatherDisplay:10.37,2013-01-24 07:36:00,
2013-01-24 01:41:00,61.0,59.6,30.22,South,173,3.5,3.5,95,0.00,CLR,SKC,0.00,0.0,WeatherDisplay:10.37,2013-01-24 07:41:00,
2013-01-24 01:46:00,61.0,59.6,30.22,SSE,159,4.6,4.6,95,0.00,CLR,SKC,0.00,0.0,WeatherDisplay:10.37,2013-01-24 07:46:00,
2013-01-24 01:51:00,61.0,59.6,30.22,South,176,2.3,2.3,95,0.00,CLR,SKC,0.00,0.0,WeatherDisplay:10.37,2013-01-24 07:51:00,
2013-01-24 01:56:00,61.0,59.6,30.22,South,171,1.1,1.1,95,0.00,CLR,SKC,0.00,0.0,WeatherDisplay:10.37,2013-01-24 07:56:00,
2013-01-24 02:01:00,60.9,59.5,30.22,SSW,205,2.3,0.0,95,0.00,CLR,SKC,0.00,0.0,WeatherDisplay:10.37,2013-01-24 08:01:00,
2013-01-24 02:06:00,60.9,59.5,30.22,SSW,192,2.0,2.0,95,0.00,CLR,SKC,0.00,0.0,WeatherDisplay:10.37,2013-01-24 08:06:00,
2013-01-24 02:11:00,60.9,59.5,30.22,SE,128,1.1,1.1,95,0.00,CLR,SKC,0.00,0.0,WeatherDisplay:10.37,2013-01-24 08:11:00,
2013-01-24 02:16:00,60.8,59.4,30.22,SW,219,3.5,3.5,95,0.00,CLR,SKC,0.00,0.0,WeatherDisplay:10.37,2013-01-24 08:16:00,
2013-01-24 02:21:00,60.7,59.3,30.22,South,182,3.5,3.5,95,0.00,CLR,SKC,0.00,0.0,WeatherDisplay:10.37,2013-01-24 08:21:00,
2013-01-24 02:26:00,60.6,59.2,30.22,South,169,2.0,2.0,95,0.00,CLR,SKC,0.00,0.0,WeatherDisplay:10.37,2013-01-24 08:26:00,
2013-01-24 02:31:00,60.6,59.2,30.22,SSE,154,5.8,5.8,95,0.00,CLR,SKC,0.00,0.0,WeatherDisplay:10.37,2013-01-24 08:31:00,
2013-01-24 02:36:00,60.6,59.2,30.22,SW,215,3.5,3.5,95,0.00,CLR,SKC,0.00,0.0,WeatherDisplay:10.37,2013-01-24 08:36:00,
2013-01-24 02:41:00,60.6,59.2,30.21,SE,130,1.1,1.1,95,0.00,CLR,SKC,0.00,0.0,WeatherDisplay:10.37,2013-01-24 08:41:00,
2013-01-24 02:46:00,60.6,59.2,30.21,SW,230,3.5,3.5,95,0.00,CLR,SKC,0.00,0.0,WeatherDisplay:10.37,2013-01-24 08:46:00,
2013-01-24 02:51:00,60.6,59.2,30.21,SSW,196,2.3,2.3,95,0.00,CLR,SKC,0.00,0.0,WeatherDisplay:10.37,2013-01-24 08:51:00,
2013-01-24 02:56:00,60.6,59.2,30.21,South,190,3.5,3.5,95,0.00,CLR,SKC,0.00,0.0,WeatherDisplay:10.37,2013-01-24 08:56:00,
2013-01-24 03:01:00,60.6,59.2,30.21,SSW,207,3.5,3.5,95,0.00,CLR,SKC,0.00,0.0,WeatherDisplay:10.37,2013-01-24 09:01:00,
2013-01-24 03:06:00,60.6,59.2,30.21,SSE,157,3.0,3.0,95,0.00,CLR,SKC,0.00,0.0,WeatherDisplay:10.37,2013-01-24 09:06:00,
2013-01-24 03:11:00,60.6,59.2,30.22,South,171,2.0,2.0,95,0.00,CLR,SKC,0.00,0.0,WeatherDisplay:10.37,2013-01-24 09:11:00,
2013-01-24 03:16:00,60.7,59.3,30.22,South,184,4.6,4.6,95,0.00,CLR,SKC,0.00,0.0,WeatherDisplay:10.37,2013-01-24 09:16:00,
2013-01-24 03:21:00,60.7,59.3,30.22,WSW,240,4.6,4.6,95,0.00,CLR,SKC,0.00,0.0,WeatherDisplay:10.37,2013-01-24 09:21:00,
2013-01-24 03:26:00,60.7,59.3,30.21,SSW,196,2.3,2.3,95,0.00,CLR,SKC,0.00,0.0,WeatherDisplay:10.37,2013-01-24 09:26:00,
2013-01-24 03:31:00,60.7,59.3,30.21,SSE,164,3.5,3.5,95,0.00,CLR,SKC,0.00,0.0,WeatherDisplay:10.37,2013-01-24 09:31:00,
2013-01-24 03:36:00,60.7,59.3,30.21,SSW,203,2.0,2.0,95,0.00,CLR,SKC,0.00,0.0,WeatherDisplay:10.37,2013-01-24 09:36:00,
2013-01-24 03:41:00,60.8,59.4,30.21,East,89,1.1,1.1,95,0.00,CLR,SKC,0.00,0.0,WeatherDisplay:10.37,2013-01-24 09:41:00,
2013-01-24 03:46:00,60.8,59.4,30.21,SSW,196,3.5,3.5,95,0.00,CLR,SKC,0.00,0.0,WeatherDisplay:10.37,2013-01-24 09:46:00,
2013-01-24 03:51:00,60.8,59.4,30.21,North,355,3.5,3.5,95,0.00,CLR,SKC,0.00,0.0,WeatherDisplay:10.37,2013-01-24 09:51:00,
2013-01-24 03:56:00,60.8,59.4,30.21,WSW,241,1.1,1.1,95,0.00,CLR,SKC,0.00,0.0,WeatherDisplay:10.37,2013-01-24 09:56:00,
2013-01-24 04:01:00,60.8,59.4,30.21,West,268,3.5,3.5,95,0.00,CLR,SKC,0.00,0.0,WeatherDisplay:10.37,2013-01-24 10:01:00,
2013-01-24 04:06:00,60.8,59.4,30.21,SSE,161,2.3,2.3,95,0.00,CLR,SKC,0.00,0.0,WeatherDisplay:10.37,2013-01-24 10:06:00,
2013-01-24 04:11:00,60.8,59.4,30.20,SSE,163,3.5,3.5,95,0.00,CLR,SKC,0.00,0.0,WeatherDisplay:10.37,2013-01-24 10:11:00,
2013-01-24 04:17:00,60.8,59.4,30.20,SE,138,1.1,1.5,95,0.00,CLR,SKC,0.00,0.0,WeatherDisplay:10.37,2013-01-24 10:17:00,
2013-01-24 04:22:00,60.8,59.4,30.20,South,171,2.3,2.3,95,0.00,CLR,SKC,0.00,0.0,WeatherDisplay:10.37,2013-01-24 10:22:00,
2013-01-24 04:27:00,60.7,59.3,30.21,SSE,164,4.6,4.6,95,0.00,CLR,SKC,0.00,0.0,WeatherDisplay:10.37,2013-01-24 10:27:00,
2013-01-24 04:32:00,60.7,59.3,30.21,SE,131,2.3,0.0,95,0.00,CLR,SKC,0.00,0.0,WeatherDisplay:10.37,2013-01-24 10:32:00,
2013-01-24 04:37:00,60.7,59.3,30.21,SSW,198,1.1,1.1,95,0.00,CLR,SKC,0.00,0.0,WeatherDisplay:10.37,2013-01-24 10:37:00,
2013-01-24 04:42:00,60.7,59.3,30.21,South,187,2.3,2.3,95,0.00,CLR,SKC,0.00,0.0,WeatherDisplay:10.37,2013-01-24 10:42:00,
2013-01-24 04:47:00,60.7,59.3,30.21,SE,145,3.5,3.5,95,0.00,CLR,SKC,0.00,0.0,WeatherDisplay:10.37,2013-01-24 10:47:00,
2013-01-24 04:52:00,60.6,59.2,30.21,SSE,156,3.5,3.5,95,0.00,CLR,SKC,0.00,0.0,WeatherDisplay:10.37,2013-01-24 10:52:00,
2013-01-24 04:57:00,60.5,59.4,30.22,South,171,2.3,2.3,96,0.00,CLR,SKC,0.00,0.0,WeatherDisplay:10.37,2013-01-24 10:57:00,
2013-01-24 05:02:00,60.5,59.1,30.22,South,172,3.5,3.5,95,0.00,CLR,SKC,0.00,0.0,WeatherDisplay:10.37,2013-01-24 11:02:00,
2013-01-24 05:07:00,60.4,59.0,30.22,South,182,2.3,2.3,95,0.00,CLR,SKC,0.00,0.0,WeatherDisplay:10.37,2013-01-24 11:07:00,
2013-01-24 05:12:00,60.3,58.9,30.21,SSE,163,1.1,1.1,95,0.00,CLR,SKC,0.00,0.0,WeatherDisplay:10.37,2013-01-24 11:12:00,
2013-01-24 05:17:00,60.2,58.8,30.21,SSE,152,3.5,3.5,95,0.00,CLR,SKC,0.00,0.0,WeatherDisplay:10.37,2013-01-24 11:17:00,
2013-01-24 05:22:00,60.1,58.7,30.21,SSE,148,3.5,3.5,95,0.00,CLR,SKC,0.00,0.0,WeatherDisplay:10.37,2013-01-24 11:22:00,
2013-01-24 05:27:00,60.1,58.7,30.21,SSE,151,3.5,3.5,95,0.00,CLR,SKC,0.00,0.0,WeatherDisplay:10.37,2013-01-24 11:27:00,
2013-01-24 05:32:00,60.1,58.7,30.21,SSE,163,3.5,3.5,95,0.00,CLR,SKC,0.00,0.0,WeatherDisplay:10.37,2013-01-24 11:32:00,
2013-01-24 05:37:00,60.1,59.0,30.21,SE,136,3.5,3.5,96,0.00,CLR,SKC,0.00,0.0,WeatherDisplay:10.37,2013-01-24 11:37:00,
2013-01-24 05:42:00,60.0,58.6,30.21,SSE,151,3.5,3.5,95,0.00,CLR,SKC,0.00,0.0,WeatherDisplay:10.37,2013-01-24 11:42:00,
2013-01-24 05:47:00,59.9,58.8,30.21,South,180,3.5,3.5,96,0.00,CLR,SKC,0.00,0.0,WeatherDisplay:10.37,2013-01-24 11:47:00,
2013-01-24 05:52:00,59.8,58.7,30.21,SSE,159,3.5,3.5,96,0.00,CLR,SKC,0.00,0.0,WeatherDisplay:10.37,2013-01-24 11:52:00,
2013-01-24 05:57:00,59.9,58.8,30.21,SE,140,3.5,3.5,96,0.00,CLR,SKC,0.00,0.0,WeatherDisplay:10.37,2013-01-24 11:57:00,
2013-01-24 06:02:00,59.9,58.8,30.21,South,180,4.6,4.6,96,0.00,CLR,SKC,0.00,0.0,WeatherDisplay:10.37,2013-01-24 12:02:00,
2013-01-24 06:07:00,59.9,58.8,30.21,SSE,151,4.6,4.6,96,0.00,CLR,SKC,0.00,0.0,WeatherDisplay:10.37,2013-01-24 12:07:00,
2013-01-24 06:12:00,59.9,58.8,30.21,SSE,167,4.6,4.6,96,0.01,RA,SKC,0.01,0.0,WeatherDisplay:10.37,2013-01-24 12:12:00,
2013-01-24 06:17:00,59.8,58.7,30.21,SSE,162,3.5,3.5,96,0.01,RA,SKC,0.01,0.0,WeatherDisplay:10.37,2013-01-24 12:17:00,
2013-01-24 06:22:00,59.7,58.3,30.21,SSE,155,3.5,3.5,95,0.01,CLR,SKC,0.01,0.0,WeatherDisplay:10.37,2013-01-24 12:22:00,
2013-01-24 06:27:00,59.6,58.5,30.22,SSE,148,2.3,2.3,96,0.01,CLR,SKC,0.01,0.0,WeatherDisplay:10.37,2013-01-24 12:27:00,
2013-01-24 06:32:00,59.6,58.5,30.22,SE,146,3.5,3.5,96,0.01,CLR,SKC,0.01,0.0,WeatherDisplay:10.37,2013-01-24 12:32:00,
2013-01-24 06:37:00,59.5,58.4,30.22,SSE,150,2.3,2.3,96,0.01,CLR,SKC,0.01,0.0,WeatherDisplay:10.37,2013-01-24 12:37:00,
2013-01-24 06:42:00,59.6,58.5,30.22,ESE,111,4.6,4.6,96,0.01,CLR,SKC,0.01,0.0,WeatherDisplay:10.37,2013-01-24 12:42:00,
2013-01-24 06:47:00,59.6,58.5,30.22,SSE,153,3.5,3.5,96,0.01,CLR,SKC,0.01,0.0,WeatherDisplay:10.37,2013-01-24 12:47:00,
2013-01-24 06:52:00,59.6,58.5,30.22,SSE,153,3.5,3.5,96,0.01,CLR,SKC,0.01,0.0,WeatherDisplay:10.37,2013-01-24 12:52:00,
2013-01-24 06:57:00,59.7,58.6,30.22,SSW,192,3.5,3.5,96,0.01,CLR,SKC,0.01,0.0,WeatherDisplay:10.37,2013-01-24 12:57:00,
2013-01-24 07:02:00,59.7,58.6,30.22,SSE,163,3.5,3.5,96,0.01,CLR,SKC,0.01,0.0,WeatherDisplay:10.37,2013-01-24 13:02:00,
2013-01-24 07:07:00,59.7,58.6,30.22,SSE,150,3.5,3.5,96,0.01,CLR,SKC,0.01,0.0,WeatherDisplay:10.37,2013-01-24 13:07:00,
2013-01-24 07:12:00,59.7,58.6,30.22,SSE,154,3.5,3.5,96,0.00,CLR,SKC,0.01,0.0,WeatherDisplay:10.37,2013-01-24 13:12:00,
2013-01-24 07:17:00,59.7,58.6,30.22,SSE,163,2.3,2.3,96,0.00,CLR,SKC,0.01,0.0,WeatherDisplay:10.37,2013-01-24 13:17:00,
2013-01-24 07:22:00,59.6,58.5,30.22,ESE,123,3.5,3.5,96,0.00,CLR,SKC,0.01,7.0,WeatherDisplay:10.37,2013-01-24 13:22:00,
2013-01-24 07:27:00,59.6,58.5,30.22,SSE,155,3.5,3.5,96,0.00,CLR,SKC,0.01,11.0,WeatherDisplay:10.37,2013-01-24 13:27:00,
2013-01-24 07:32:00,59.6,58.5,30.22,SSE,157,3.5,3.5,96,0.00,CLR,SKC,0.01,14.0,WeatherDisplay:10.37,2013-01-24 13:32:00,
2013-01-24 07:37:00,59.7,58.6,30.22,SSE,153,3.5,3.5,96,0.00,CLR,SKC,0.01,39.0,WeatherDisplay:10.37,2013-01-24 13:37:00,
2013-01-24 07:42:00,59.8,58.7,30.22,SSE,164,1.1,1.1,96,0.00,CLR,SKC,0.01,54.0,WeatherDisplay:10.37,2013-01-24 13:42:00,
2013-01-24 07:47:00,60.0,58.9,30.22,SSE,153,4.6,4.6,96,0.00,CLR,SKC,0.01,72.0,WeatherDisplay:10.37,2013-01-24 13:47:00,
2013-01-24 07:52:00,60.2,59.1,30.22,SSE,162,3.5,3.5,96,0.00,CLR,SKC,0.01,83.0,WeatherDisplay:10.37,2013-01-24 13:52:00,
2013-01-24 07:57:00,60.3,59.2,30.23,SSE,161,0.0,0.0,96,0.00,CLR,SKC,0.01,90.0,WeatherDisplay:10.37,2013-01-24 13:57:00,
2013-01-24 08:02:00,60.7,59.6,30.23,SSW,202,2.3,2.3,96,0.00,CLR,SKC,0.01,95.0,WeatherDisplay:10.37,2013-01-24 14:02:00,
2013-01-24 08:07:00,60.9,59.8,30.23,SSE,160,2.3,2.3,96,0.00,CLR,SKC,0.01,102.0,WeatherDisplay:10.37,2013-01-24 14:07:00,
2013-01-24 08:12:00,61.1,60.0,30.23,South,183,3.5,3.5,96,0.00,CLR,SKC,0.01,114.0,WeatherDisplay:10.37,2013-01-24 14:12:00,
2013-01-24 08:17:00,61.3,60.2,30.23,South,173,3.5,3.5,96,0.00,CLR,SKC,0.01,137.0,WeatherDisplay:10.37,2013-01-24 14:17:00,
2013-01-24 08:22:00,61.6,60.4,30.23,SSW,198,1.1,1.1,96,0.00,CLR,SKC,0.01,165.0,WeatherDisplay:10.37,2013-01-24 14:22:00,
2013-01-24 08:27:00,61.9,60.7,30.24,South,174,3.5,3.5,96,0.00,CLR,SKC,0.01,192.0,WeatherDisplay:10.37,2013-01-24 14:27:00,
2013-01-24 08:32:00,62.3,61.1,30.24,SSW,209,1.1,1.1,96,0.00,CLR,SKC,0.01,207.0,WeatherDisplay:10.37,2013-01-24 14:32:00,
2013-01-24 08:37:00,62.9,61.7,30.24,South,173,1.1,1.1,96,0.00,CLR,SKC,0.01,229.0,WeatherDisplay:10.37,2013-01-24 14:37:00,
2013-01-24 08:42:00,63.2,62.0,30.24,SW,225,3.5,3.5,96,0.00,CLR,SKC,0.01,244.0,WeatherDisplay:10.37,2013-01-24 14:42:00,
2013-01-24 08:47:00,63.6,62.4,30.24,SW,229,2.3,2.3,96,0.00,CLR,SKC,0.01,262.0,WeatherDisplay:10.37,2013-01-24 14:47:00,
2013-01-24 08:52:00,64.0,62.8,30.24,South,180,2.3,2.3,96,0.00,CLR,SKC,0.01,279.0,WeatherDisplay:10.37,2013-01-24 14:52:00,
2013-01-24 08:57:00,64.4,63.2,30.25,ENE,60,2.3,2.3,96,0.00,CLR,SKC,0.01,297.0,WeatherDisplay:10.37,2013-01-24 14:57:00,
2013-01-24 09:02:00,64.7,63.2,30.25,South,171,2.3,2.3,95,0.00,CLR,SKC,0.01,320.0,WeatherDisplay:10.37,2013-01-24 15:02:00,
2013-01-24 09:07:00,65.1,63.6,30.25,South,180,1.1,1.1,95,0.00,CLR,SKC,0.01,339.0,WeatherDisplay:10.37,2013-01-24 15:07:00,
2013-01-24 09:12:00,65.5,64.0,30.25,South,188,5.8,5.8,95,0.00,CLR,SKC,0.01,353.0,WeatherDisplay:10.37,2013-01-24 15:12:00,
2013-01-24 09:17:00,65.8,64.0,30.25,SSE,165,3.5,3.5,94,0.00,CLR,SKC,0.01,369.0,WeatherDisplay:10.37,2013-01-24 15:17:00,
2013-01-24 09:22:00,66.2,64.4,30.25,SSE,162,6.0,6.0,94,0.00,CLR,SKC,0.01,383.0,WeatherDisplay:10.37,2013-01-24 15:22:00,
2013-01-24 09:27:00,66.5,64.4,30.26,SE,132,6.0,6.0,93,0.00,CLR,SKC,0.01,399.0,WeatherDisplay:10.37,2013-01-24 15:27:00,
2013-01-24 09:32:00,66.9,64.8,30.26,SSW,194,2.3,2.3,93,0.00,CLR,SKC,0.01,415.0,WeatherDisplay:10.37,2013-01-24 15:32:00,
2013-01-24 09:37:00,67.1,64.7,30.26,SE,142,3.5,3.5,92,0.00,CLR,SKC,0.01,429.0,WeatherDisplay:10.37,2013-01-24 15:37:00,
2013-01-24 09:42:00,67.4,64.7,30.27,South,180,3.5,3.5,91,0.00,CLR,SKC,0.01,443.0,WeatherDisplay:10.37,2013-01-24 15:42:00,
2013-01-24 09:47:00,67.7,65.0,30.27,South,172,3.5,3.5,91,0.00,CLR,SKC,0.01,457.0,WeatherDisplay:10.37,2013-01-24 15:47:00,
2013-01-24 09:52:00,68.1,65.1,30.27,SSW,193,3.5,3.5,90,0.00,CLR,SKC,0.01,471.0,WeatherDisplay:10.37,2013-01-24 15:52:00,
2013-01-24 09:57:00,68.4,65.0,30.27,South,180,1.1,1.1,89,0.00,CLR,SKC,0.01,485.0,WeatherDisplay:10.37,2013-01-24 15:57:00,
2013-01-24 10:02:00,68.7,65.0,30.27,SE,142,4.6,4.6,88,0.00,CLR,SKC,0.01,497.0,WeatherDisplay:10.37,2013-01-24 16:02:00,
2013-01-24 10:07:00,68.9,64.9,30.27,South,182,2.3,2.3,87,0.00,CLR,SKC,0.01,510.0,WeatherDisplay:10.37,2013-01-24 16:07:00,
2013-01-24 10:12:00,69.2,64.8,30.28,SSE,164,1.1,1.1,86,0.00,CLR,SKC,0.01,522.0,WeatherDisplay:10.37,2013-01-24 16:12:00,
2013-01-24 10:17:00,69.4,65.0,30.28,SE,127,5.8,5.8,86,0.00,CLR,SKC,0.01,534.0,WeatherDisplay:10.37,2013-01-24 16:17:00,
2013-01-24 10:22:00,69.6,64.9,30.28,SSE,163,1.1,1.1,85,0.00,CLR,SKC,0.01,545.0,WeatherDisplay:10.37,2013-01-24 16:22:00,
2013-01-24 10:27:00,69.8,64.7,30.28,South,173,3.5,3.5,84,0.00,CLR,SKC,0.01,559.0,WeatherDisplay:10.37,2013-01-24 16:27:00,
2013-01-24 10:32:00,70.0,64.9,30.28,South,169,3.5,3.5,84,0.00,CLR,SKC,0.01,568.0,WeatherDisplay:10.37,2013-01-24 16:32:00,
2013-01-24 10:37:00,70.3,64.9,30.28,South,170,3.5,3.5,83,0.00,CLR,SKC,0.01,578.0,WeatherDisplay:10.37,2013-01-24 16:37:00,
2013-01-24 10:42:00,70.5,64.7,30.27,SSE,165,4.6,4.6,82,0.00,CLR,SKC,0.01,589.0,WeatherDisplay:10.37,2013-01-24 16:42:00,
2013-01-24 10:47:00,70.6,64.8,30.27,South,182,9.2,9.2,82,0.00,CLR,SKC,0.01,598.0,WeatherDisplay:10.37,2013-01-24 16:47:00,
2013-01-24 10:52:00,70.6,64.8,30.27,SSE,163,4.6,4.6,82,0.00,CLR,SKC,0.01,606.0,WeatherDisplay:10.37,2013-01-24 16:52:00,
2013-01-24 10:57:00,70.6,64.5,30.27,SSE,147,3.5,3.5,81,0.00,CLR,SKC,0.01,615.0,WeatherDisplay:10.37,2013-01-24 16:57:00,
2013-01-24 11:02:00,70.7,64.6,30.27,South,169,3.5,3.5,81,0.00,CLR,SKC,0.01,624.0,WeatherDisplay:10.37,2013-01-24 17:02:00,
2013-01-24 11:07:00,70.8,64.7,30.27,South,184,3.5,3.5,81,0.00,CLR,SKC,0.01,631.0,WeatherDisplay:10.37,2013-01-24 17:07:00,
2013-01-24 11:12:00,71.1,65.0,30.27,ESE,109,1.1,1.1,81,0.00,CLR,SKC,0.01,640.0,WeatherDisplay:10.37,2013-01-24 17:12:00,
2013-01-24 11:17:00,71.3,64.8,30.27,SSE,155,4.6,4.6,80,0.00,CLR,SKC,0.01,647.0,WeatherDisplay:10.37,2013-01-24 17:17:00,
2013-01-24 11:22:00,71.5,65.0,30.27,SE,137,2.3,2.3,80,0.00,CLR,SKC,0.01,654.0,WeatherDisplay:10.37,2013-01-24 17:22:00,
2013-01-24 11:27:00,71.8,64.9,30.27,SSE,151,3.5,3.5,79,0.00,CLR,SKC,0.01,659.0,WeatherDisplay:10.37,2013-01-24 17:27:00,
2013-01-24 11:32:00,71.9,65.0,30.27,South,171,4.6,4.6,79,0.00,CLR,SKC,0.01,664.0,WeatherDisplay:10.37,2013-01-24 17:32:00,
2013-01-24 11:37:00,72.0,64.8,30.27,SW,214,3.5,3.5,78,0.00,CLR,SKC,0.01,670.0,WeatherDisplay:10.37,2013-01-24 17:37:00,
2013-01-24 11:42:00,72.2,65.0,30.26,SW,229,5.8,5.8,78,0.00,CLR,SKC,0.01,675.0,WeatherDisplay:10.37,2013-01-24 17:42:00,
2013-01-24 11:47:00,72.3,64.7,30.26,ESE,122,4.6,4.6,77,0.00,CLR,SKC,0.01,680.0,WeatherDisplay:10.37,2013-01-24 17:47:00,
2013-01-24 11:52:00,72.3,64.7,30.26,SSE,157,5.8,5.8,77,0.00,CLR,SKC,0.01,686.0,WeatherDisplay:10.37,2013-01-24 17:52:00,
2013-01-24 11:57:00,72.2,64.6,30.25,SSE,167,5.8,5.8,77,0.00,CLR,SKC,0.01,686.0,WeatherDisplay:10.37,2013-01-24 17:57:00,
2013-01-24 12:02:00,72.2,65.0,30.25,SSE,147,3.5,3.5,78,0.00,CLR,SKC,0.01,693.0,WeatherDisplay:10.37,2013-01-24 18:02:00,
2013-01-24 12:07:00,72.3,64.7,30.25,ESE,114,3.5,3.5,77,0.00,CLR,SKC,0.01,687.0,WeatherDisplay:10.37,2013-01-24 18:07:00,
2013-01-24 12:12:00,72.3,64.7,30.24,SSE,151,5.8,5.8,77,0.00,CLR,SKC,0.01,677.0,WeatherDisplay:10.37,2013-01-24 18:12:00,
2013-01-24 12:17:00,72.1,64.5,30.24,SSE,151,5.0,5.0,77,0.00,CLR,SKC,0.01,698.0,WeatherDisplay:10.37,2013-01-24 18:17:00,
2013-01-24 12:22:00,72.1,64.9,30.24,SSE,155,4.6,4.6,78,0.00,CLR,SKC,0.01,700.0,WeatherDisplay:10.37,2013-01-24 18:22:00,
2013-01-24 12:27:00,72.0,64.4,30.23,SE,132,5.8,5.8,77,0.00,CLR,SKC,0.01,700.0,WeatherDisplay:10.37,2013-01-24 18:27:00,
2013-01-24 12:32:00,71.8,64.6,30.23,SSE,159,6.9,6.9,78,0.00,CLR,SKC,0.01,700.0,WeatherDisplay:10.37,2013-01-24 18:32:00,
2013-01-24 12:37:00,71.7,64.5,30.23,SE,136,4.6,4.6,78,0.00,CLR,SKC,0.01,701.0,WeatherDisplay:10.37,2013-01-24 18:37:00,
2013-01-24 12:42:00,71.8,64.6,30.22,SSE,158,5.8,5.8,78,0.00,CLR,SKC,0.01,701.0,WeatherDisplay:10.37,2013-01-24 18:42:00,
2013-01-24 12:47:00,71.8,64.6,30.22,SE,130,11.5,11.5,78,0.00,CLR,SKC,0.01,703.0,WeatherDisplay:10.37,2013-01-24 18:47:00,
2013-01-24 12:52:00,71.7,64.5,30.22,SE,130,9.2,9.2,78,0.00,CLR,SKC,0.01,701.0,WeatherDisplay:10.37,2013-01-24 18:52:00,
2013-01-24 12:57:00,71.5,64.6,30.21,South,173,6.9,6.9,79,0.00,CLR,SKC,0.01,700.0,WeatherDisplay:10.37,2013-01-24 18:57:00,
2013-01-24 13:02:00,71.4,64.5,30.21,SSE,151,6.9,6.9,79,0.00,CLR,SKC,0.01,700.0,WeatherDisplay:10.37,2013-01-24 19:02:00,
2013-01-24 13:07:00,71.3,64.8,30.21,SSE,152,10.4,10.4,80,0.00,CLR,SKC,0.01,694.0,WeatherDisplay:10.37,2013-01-24 19:07:00,
2013-01-24 13:12:00,71.1,64.6,30.19,South,177,5.8,5.8,80,0.00,CLR,SKC,0.01,691.0,WeatherDisplay:10.37,2013-01-24 19:12:00,
2013-01-24 13:17:00,70.9,64.4,30.19,ESE,112,10.4,10.4,80,0.00,CLR,SKC,0.01,689.0,WeatherDisplay:10.37,2013-01-24 19:17:00,
2013-01-24 13:22:00,70.8,64.7,30.19,SSE,164,11.5,11.5,81,0.00,CLR,SKC,0.01,687.0,WeatherDisplay:10.37,2013-01-24 19:22:00,
2013-01-24 13:27:00,70.4,64.3,30.19,South,178,9.2,9.2,81,0.00,CLR,SKC,0.01,680.0,WeatherDisplay:10.37,2013-01-24 19:27:00,
2013-01-24 13:32:00,70.2,64.4,30.19,SE,142,12.7,12.7,82,0.00,CLR,SKC,0.01,677.0,WeatherDisplay:10.37,2013-01-24 19:32:00,
2013-01-24 13:37:00,70.2,64.8,30.19,SSE,149,5.8,5.8,83,0.00,CLR,SKC,0.01,677.0,WeatherDisplay:10.37,2013-01-24 19:37:00,
2013-01-24 13:42:00,70.2,64.8,30.18,East,89,8.1,8.1,83,0.00,CLR,SKC,0.01,635.0,WeatherDisplay:10.37,2013-01-24 19:42:00,
2013-01-24 13:47:00,70.0,64.6,30.18,ESE,115,10.4,10.4,83,0.00,CLR,SKC,0.01,624.0,WeatherDisplay:10.37,2013-01-24 19:47:00,
2013-01-24 13:52:00,69.9,64.8,30.18,SE,144,9.2,9.2,84,0.00,CLR,SKC,0.01,649.0,WeatherDisplay:10.37,2013-01-24 19:52:00,
2013-01-24 13:57:00,69.9,64.5,30.16,SE,136,5.8,5.8,83,0.00,CLR,SKC,0.01,631.0,WeatherDisplay:10.37,2013-01-24 19:57:00,
2013-01-24 14:02:00,69.8,64.4,30.16,SSE,160,11.5,11.5,83,0.00,CLR,SKC,0.01,640.0,WeatherDisplay:10.37,2013-01-24 20:02:00,
2013-01-24 14:07:00,69.6,64.2,30.16,SSE,165,10.4,10.4,83,0.00,CLR,SKC,0.01,629.0,WeatherDisplay:10.37,2013-01-24 20:07:00,
2013-01-24 14:12:00,69.5,64.5,30.16,SSE,157,9.2,9.2,84,0.00,CLR,SKC,0.01,615.0,WeatherDisplay:10.37,2013-01-24 20:12:00,
2013-01-24 14:17:00,69.5,64.5,30.16,SSE,155,9.2,9.2,84,0.00,CLR,SKC,0.01,613.0,WeatherDisplay:10.37,2013-01-24 20:17:00,
2013-01-24 14:22:00,69.4,64.4,30.16,South,188,6.9,6.9,84,0.00,CLR,SKC,0.01,603.0,WeatherDisplay:10.37,2013-01-24 20:22:00,
2013-01-24 14:27:00,69.2,64.2,30.15,East,99,13.8,13.8,84,0.00,CLR,SKC,0.01,591.0,WeatherDisplay:10.37,2013-01-24 20:27:00,
2013-01-24 14:32:00,69.3,64.3,30.15,SSE,148,9.2,9.2,84,0.00,CLR,SKC,0.01,580.0,WeatherDisplay:10.37,2013-01-24 20:32:00,
2013-01-24 14:37:00,69.4,64.0,30.15,SE,131,10.4,10.4,83,0.00,CLR,SKC,0.01,573.0,WeatherDisplay:10.37,2013-01-24 20:37:00,
2013-01-24 14:42:00,69.4,64.0,30.14,SE,125,9.2,9.2,83,0.00,CLR,SKC,0.01,563.0,WeatherDisplay:10.37,2013-01-24 20:42:00,
2013-01-24 14:47:00,69.4,64.0,30.14,SSE,163,16.1,16.1,83,0.00,CLR,SKC,0.01,552.0,WeatherDisplay:10.37,2013-01-24 20:47:00,
2013-01-24 14:52:00,69.2,64.2,30.14,SE,136,13.8,13.8,84,0.00,CLR,SKC,0.01,543.0,WeatherDisplay:10.37,2013-01-24 20:52:00,
2013-01-24 14:57:00,69.1,64.1,30.14,ESE,120,12.7,12.7,84,0.00,CLR,SKC,0.01,522.0,WeatherDisplay:10.37,2013-01-24 20:57:00,
2013-01-24 15:02:00,69.0,64.0,30.14,ESE,118,11.5,11.5,84,0.00,CLR,SKC,0.01,515.0,WeatherDisplay:10.37,2013-01-24 21:02:00,
2013-01-24 15:07:00,68.9,63.9,30.14,SSE,164,10.4,10.4,84,0.00,CLR,SKC,0.01,503.0,WeatherDisplay:10.37,2013-01-24 21:07:00,
2013-01-24 15:12:00,68.9,63.9,30.13,SE,124,11.5,11.5,84,0.00,CLR,SKC,0.01,490.0,WeatherDisplay:10.37,2013-01-24 21:12:00,
2013-01-24 15:17:00,68.8,63.8,30.13,SE,134,5.8,5.8,84,0.00,CLR,SKC,0.01,476.0,WeatherDisplay:10.37,2013-01-24 21:17:00,
2013-01-24 15:22:00,68.8,63.8,30.13,ESE,121,10.4,10.4,84,0.00,CLR,SKC,0.01,464.0,WeatherDisplay:10.37,2013-01-24 21:22:00,
2013-01-24 15:27:00,68.7,63.7,30.13,SE,131,10.4,10.4,84,0.00,CLR,SKC,0.01,450.0,WeatherDisplay:10.37,2013-01-24 21:27:00,
2013-01-24 15:32:00,68.6,63.9,30.13,ESE,115,9.2,9.2,85,0.00,CLR,SKC,0.01,436.0,WeatherDisplay:10.37,2013-01-24 21:32:00,
2013-01-24 15:37:00,68.3,63.6,30.13,SE,140,11.5,11.5,85,0.00,CLR,SKC,0.01,422.0,WeatherDisplay:10.37,2013-01-24 21:37:00,
2013-01-24 15:42:00,68.1,63.4,30.13,ESE,107,9.2,9.2,85,0.00,CLR,SKC,0.01,408.0,WeatherDisplay:10.37,2013-01-24 21:42:00,
2013-01-24 15:47:00,68.0,63.3,30.13,SE,126,12.7,12.7,85,0.00,CLR,SKC,0.01,394.0,WeatherDisplay:10.37,2013-01-24 21:47:00,
2013-01-24 15:52:00,67.9,63.6,30.13,SSE,157,10.4,10.4,86,0.00,CLR,SKC,0.01,378.0,WeatherDisplay:10.37,2013-01-24 21:52:00,
2013-01-24 15:57:00,67.7,63.4,30.13,SE,139,16.1,16.1,86,0.00,CLR,SKC,0.01,362.0,WeatherDisplay:10.37,2013-01-24 21:57:00,
2013-01-24 16:02:00,67.5,63.2,30.13,SSE,161,12.7,12.7,86,0.00,CLR,SKC,0.01,346.0,WeatherDisplay:10.37,2013-01-24 22:02:00,
2013-01-24 16:07:00,67.4,63.4,30.13,ESE,121,11.5,11.5,87,0.00,CLR,SKC,0.01,332.0,WeatherDisplay:10.37,2013-01-24 22:07:00,
2013-01-24 16:12:00,67.4,63.4,30.12,ESE,115,9.2,9.2,87,0.00,CLR,SKC,0.01,318.0,WeatherDisplay:10.37,2013-01-24 22:12:00,
2013-01-24 16:17:00,67.5,63.5,30.12,ESE,119,11.5,11.5,87,0.00,CLR,SKC,0.01,302.0,WeatherDisplay:10.37,2013-01-24 22:17:00,
2013-01-24 16:22:00,67.5,63.5,30.12,SE,132,11.5,11.5,87,0.00,CLR,SKC,0.01,287.0,WeatherDisplay:10.37,2013-01-24 22:22:00,
2013-01-24 16:27:00,67.5,63.5,30.13,SSE,159,12.0,12.0,87,0.00,CLR,SKC,0.01,271.0,WeatherDisplay:10.37,2013-01-24 22:27:00,
2013-01-24 16:32:00,67.4,63.4,30.13,SSE,157,10.4,10.4,87,0.00,CLR,SKC,0.01,253.0,WeatherDisplay:10.37,2013-01-24 22:32:00,
2013-01-24 16:37:00,67.3,63.3,30.13,SSE,155,8.0,8.0,87,0.00,CLR,SKC,0.01,237.0,WeatherDisplay:10.37,2013-01-24 22:37:00,
2013-01-24 16:42:00,67.1,63.1,30.13,South,173,10.4,10.4,87,0.00,CLR,SKC,0.01,221.0,WeatherDisplay:10.37,2013-01-24 22:42:00,
2013-01-24 16:47:00,67.0,63.0,30.13,SE,140,9.2,9.2,87,0.00,CLR,SKC,0.01,206.0,WeatherDisplay:10.37,2013-01-24 22:47:00,
2013-01-24 16:52:00,66.9,62.9,30.13,SSE,161,11.5,11.5,87,0.00,CLR,SKC,0.01,190.0,WeatherDisplay:10.37,2013-01-24 22:52:00,
2013-01-24 16:57:00,66.7,63.0,30.13,South,178,9.2,9.2,88,0.00,CLR,SKC,0.01,174.0,WeatherDisplay:10.37,2013-01-24 22:57:00,
2013-01-24 17:02:00,66.5,62.8,30.13,SSE,162,5.8,5.8,88,0.00,CLR,SKC,0.01,158.0,WeatherDisplay:10.37,2013-01-24 23:02:00,
2013-01-24 17:07:00,66.2,62.5,30.13,ESE,105,9.0,9.0,88,0.00,CLR,SKC,0.01,33.0,WeatherDisplay:10.37,2013-01-24 23:07:00,
2013-01-24 17:12:00,66.0,62.7,30.13,SE,125,9.2,9.2,89,0.00,CLR,SKC,0.01,32.0,WeatherDisplay:10.37,2013-01-24 23:12:00,
2013-01-24 17:17:00,65.8,62.5,30.13,SSE,148,6.9,6.9,89,0.00,CLR,SKC,0.01,30.0,WeatherDisplay:10.37,2013-01-24 23:17:00,
2013-01-24 17:22:00,65.6,62.3,30.13,SE,132,9.2,9.2,89,0.00,CLR,SKC,0.01,28.0,WeatherDisplay:10.37,2013-01-24 23:22:00,
2013-01-24 17:27:00,65.4,62.1,30.13,SE,139,6.9,6.9,89,0.00,CLR,SKC,0.01,25.0,WeatherDisplay:10.37,2013-01-24 23:27:00,
2013-01-24 17:32:00,65.2,61.9,30.13,SSE,158,10.4,10.4,89,0.00,CLR,SKC,0.01,23.0,WeatherDisplay:10.37,2013-01-24 23:32:00,
2013-01-24 17:37:00,64.9,61.9,30.13,SSE,165,11.5,11.5,90,0.00,CLR,SKC,0.01,21.0,WeatherDisplay:10.37,2013-01-24 23:37:00,
2013-01-24 17:42:00,64.8,61.8,30.13,SE,138,11.5,11.5,90,0.00,CLR,SKC,0.01,18.0,WeatherDisplay:10.37,2013-01-24 23:42:00,
2013-01-24 17:47:00,64.6,61.6,30.13,SSE,161,8.1,8.1,90,0.00,CLR,SKC,0.01,16.0,WeatherDisplay:10.37,2013-01-24 23:47:00,
2013-01-24 17:52:00,64.5,61.8,30.13,SE,140,9.2,9.2,91,0.00,CLR,SKC,0.01,12.0,WeatherDisplay:10.37,2013-01-24 23:52:00,
2013-01-24 17:57:00,64.3,61.6,30.13,SSE,167,5.8,5.8,91,0.00,CLR,SKC,0.01,9.0,WeatherDisplay:10.37,2013-01-24 23:57:00,
2013-01-24 18:02:00,64.1,61.4,30.13,SSE,149,10.4,10.4,91,0.00,CLR,SKC,0.01,7.0,WeatherDisplay:10.37,2013-01-25 00:02:00,
2013-01-24 18:07:00,64.0,61.6,30.13,SE,140,9.2,9.2,92,0.00,CLR,SKC,0.01,0.0,WeatherDisplay:10.37,2013-01-25 00:07:00,
2013-01-24 18:12:00,64.0,61.6,30.14,SE,146,11.5,11.5,92,0.00,CLR,SKC,0.01,0.0,WeatherDisplay:10.37,2013-01-25 00:12:00,
2013-01-24 18:17:00,63.9,61.5,30.14,SE,140,5.8,5.8,92,0.00,CLR,SKC,0.01,0.0,WeatherDisplay:10.37,2013-01-25 00:17:00,
2013-01-24 18:22:00,63.8,61.4,30.14,ESE,113,5.8,5.8,92,0.00,CLR,SKC,0.01,0.0,WeatherDisplay:10.37,2013-01-25 00:22:00,
2013-01-24 18:27:00,63.6,61.2,30.14,SE,127,5.8,5.8,92,0.00,CLR,SKC,0.01,0.0,WeatherDisplay:10.37,2013-01-25 00:27:00,
2013-01-24 18:32:00,63.5,61.1,30.14,SSE,153,6.9,6.9,92,0.00,CLR,SKC,0.01,0.0,WeatherDisplay:10.37,2013-01-25 00:32:00,
2013-01-24 18:37:00,63.4,61.3,30.14,ESE,106,10.4,10.4,93,0.00,CLR,SKC,0.01,0.0,WeatherDisplay:10.37,2013-01-25 00:37:00,
2013-01-24 18:42:00,63.4,61.3,30.14,SE,130,11.5,11.5,93,0.00,CLR,SKC,0.01,0.0,WeatherDisplay:10.37,2013-01-25 00:42:00,
2013-01-24 18:47:00,63.4,61.3,30.14,SE,125,11.5,11.5,93,0.00,CLR,SKC,0.01,0.0,WeatherDisplay:10.37,2013-01-25 00:47:00,
2013-01-24 18:52:00,63.4,61.3,30.14,SE,132,10.4,10.4,93,0.00,CLR,SKC,0.01,0.0,WeatherDisplay:10.37,2013-01-25 00:52:00,
2013-01-24 18:57:00,63.4,61.6,30.14,SE,144,12.7,12.7,94,0.00,CLR,SKC,0.01,0.0,WeatherDisplay:10.37,2013-01-25 00:57:00,
2013-01-24 19:02:00,63.4,61.6,30.14,SSE,167,9.2,9.2,94,0.00,CLR,SKC,0.01,0.0,WeatherDisplay:10.37,2013-01-25 01:02:00,
2013-01-24 19:07:00,63.3,61.5,30.14,SE,134,10.4,10.4,94,0.00,CLR,SKC,0.01,0.0,WeatherDisplay:10.37,2013-01-25 01:07:00,
2013-01-24 19:12:00,63.2,61.4,30.14,SE,124,6.9,6.9,94,0.00,CLR,SKC,0.01,0.0,WeatherDisplay:10.37,2013-01-25 01:12:00,
2013-01-24 19:17:00,63.1,61.3,30.14,SE,126,10.4,10.4,94,0.00,CLR,SKC,0.01,0.0,WeatherDisplay:10.37,2013-01-25 01:17:00,
2013-01-24 19:22:00,63.0,61.2,30.14,ESE,109,5.8,5.8,94,0.00,CLR,SKC,0.01,0.0,WeatherDisplay:10.37,2013-01-25 01:22:00,
2013-01-24 19:27:00,63.0,61.2,30.15,SE,142,9.2,9.2,94,0.00,CLR,SKC,0.01,0.0,WeatherDisplay:10.37,2013-01-25 01:27:00,
2013-01-24 19:32:00,62.9,61.1,30.15,SSE,148,9.2,9.2,94,0.00,CLR,SKC,0.01,0.0,WeatherDisplay:10.37,2013-01-25 01:32:00,
2013-01-24 19:37:00,62.9,61.1,30.15,SSE,155,6.9,6.9,94,0.00,CLR,SKC,0.01,0.0,WeatherDisplay:10.37,2013-01-25 01:37:00,
2013-01-24 19:42:00,62.7,60.9,30.15,SSE,167,5.8,5.8,94,0.00,CLR,SKC,0.01,0.0,WeatherDisplay:10.37,2013-01-25 01:42:00,
2013-01-24 19:47:00,62.7,60.9,30.15,ESE,115,6.9,6.9,94,0.00,CLR,SKC,0.01,0.0,WeatherDisplay:10.37,2013-01-25 01:47:00,
2013-01-24 19:52:00,62.8,61.3,30.15,SSE,152,9.2,9.2,95,0.00,CLR,SKC,0.01,0.0,WeatherDisplay:10.37,2013-01-25 01:52:00,
2013-01-24 19:57:00,62.7,61.2,30.16,ESE,122,6.9,6.9,95,0.00,CLR,SKC,0.01,0.0,WeatherDisplay:10.37,2013-01-25 01:57:00,
2013-01-24 20:02:00,62.7,61.2,30.16,East,91,9.2,9.2,95,0.00,CLR,SKC,0.01,0.0,WeatherDisplay:10.37,2013-01-25 02:02:00,
2013-01-24 20:07:00,62.7,61.2,30.16,SE,135,6.9,6.9,95,0.00,CLR,SKC,0.01,0.0,WeatherDisplay:10.37,2013-01-25 02:07:00,
2013-01-24 20:12:00,62.7,61.2,30.15,SE,141,5.8,5.8,95,0.00,CLR,SKC,0.01,0.0,WeatherDisplay:10.37,2013-01-25 02:12:00,
2013-01-24 20:17:00,62.7,61.2,30.15,SSE,158,6.9,6.9,95,0.00,CLR,SKC,0.01,0.0,WeatherDisplay:10.37,2013-01-25 02:17:00,
2013-01-24 20:22:00,62.7,61.2,30.15,SE,141,8.1,8.1,95,0.00,CLR,SKC,0.01,0.0,WeatherDisplay:10.37,2013-01-25 02:22:00,
2013-01-24 20:27:00,62.6,61.1,30.16,SE,138,5.8,5.8,95,0.00,CLR,SKC,0.01,0.0,WeatherDisplay:10.37,2013-01-25 02:27:00,
2013-01-24 20:32:00,62.5,61.0,30.16,SE,126,8.1,8.1,95,0.00,CLR,SKC,0.01,0.0,WeatherDisplay:10.37,2013-01-25 02:32:00,
2013-01-24 20:37:00,62.3,60.8,30.16,SE,135,11.5,11.5,95,0.00,CLR,SKC,0.01,0.0,WeatherDisplay:10.37,2013-01-25 02:37:00,
2013-01-24 20:42:00,62.3,60.8,30.16,South,177,10.4,10.4,95,0.00,CLR,SKC,0.01,0.0,WeatherDisplay:10.37,2013-01-25 02:42:00,
2013-01-24 20:47:00,62.3,60.8,30.16,SE,134,9.2,9.2,95,0.00,CLR,SKC,0.01,0.0,WeatherDisplay:10.37,2013-01-25 02:47:00,
2013-01-24 20:52:00,62.2,60.8,30.16,SSE,148,5.0,5.0,95,0.00,CLR,SKC,0.01,0.0,WeatherDisplay:10.37,2013-01-25 02:52:00,
2013-01-24 20:57:00,62.2,60.8,30.16,SSE,150,6.9,6.9,95,0.00,CLR,SKC,0.01,0.0,WeatherDisplay:10.37,2013-01-25 02:57:00,
2013-01-24 21:02:00,62.2,60.8,30.16,SSE,165,8.1,8.1,95,0.00,CLR,SKC,0.01,0.0,WeatherDisplay:10.37,2013-01-25 03:02:00,
2013-01-24 21:07:00,62.3,60.8,30.16,SSE,165,9.2,9.2,95,0.00,CLR,SKC,0.01,0.0,WeatherDisplay:10.37,2013-01-25 03:07:00,
2013-01-24 21:12:00,62.4,61.2,30.16,SE,142,8.1,8.1,96,0.00,CLR,SKC,0.01,0.0,WeatherDisplay:10.37,2013-01-25 03:12:00,
2013-01-24 21:17:00,62.5,61.3,30.16,SE,134,6.0,6.0,96,0.00,CLR,SKC,0.01,0.0,WeatherDisplay:10.37,2013-01-25 03:17:00,
2013-01-24 21:22:00,62.6,61.1,30.16,SE,130,10.4,10.4,95,0.00,CLR,SKC,0.01,0.0,WeatherDisplay:10.37,2013-01-25 03:22:00,
2013-01-24 21:27:00,62.7,61.2,30.16,SE,146,9.2,9.2,95,0.00,CLR,SKC,0.01,0.0,WeatherDisplay:10.37,2013-01-25 03:27:00,
2013-01-24 21:32:00,62.7,61.2,30.16,South,190,5.8,5.8,95,0.00,CLR,SKC,0.01,0.0,WeatherDisplay:10.37,2013-01-25 03:32:00,
2013-01-24 21:37:00,62.8,61.3,30.16,South,174,10.4,10.4,95,0.00,CLR,SKC,0.01,0.0,WeatherDisplay:10.37,2013-01-25 03:37:00,
2013-01-24 21:42:00,62.9,61.7,30.16,SSE,165,5.8,5.8,96,0.00,CLR,SKC,0.01,0.0,WeatherDisplay:10.37,2013-01-25 03:42:00,
2013-01-24 21:47:00,62.9,61.7,30.16,SE,133,9.2,9.2,96,0.00,CLR,SKC,0.01,0.0,WeatherDisplay:10.37,2013-01-25 03:47:00,
2013-01-24 21:52:00,63.0,61.8,30.16,SE,146,4.6,4.6,96,0.00,CLR,SKC,0.01,0.0,WeatherDisplay:10.37,2013-01-25 03:52:00,
2013-01-24 21:57:00,63.1,61.9,30.15,SSE,148,7.0,7.0,96,0.00,CLR,SKC,0.01,0.0,WeatherDisplay:10.37,2013-01-25 03:57:00,
2013-01-24 22:02:00,63.1,61.9,30.15,East,94,6.0,6.0,96,0.00,CLR,SKC,0.01,0.0,WeatherDisplay:10.37,2013-01-25 04:02:00,
2013-01-24 22:07:00,63.1,61.9,30.15,SSW,201,10.4,10.4,96,0.00,CLR,SKC,0.01,0.0,WeatherDisplay:10.37,2013-01-25 04:07:00,
2013-01-24 22:12:00,63.1,61.9,30.15,South,170,10.4,10.4,96,0.00,CLR,SKC,0.01,0.0,WeatherDisplay:10.37,2013-01-25 04:12:00,
2013-01-24 22:17:00,63.1,61.9,30.15,West,273,11.5,11.5,96,0.00,CLR,SKC,0.01,0.0,WeatherDisplay:10.37,2013-01-25 04:17:00,
2013-01-24 22:22:00,63.1,61.9,30.15,SE,139,9.2,9.2,96,0.00,CLR,SKC,0.01,0.0,WeatherDisplay:10.37,2013-01-25 04:22:00,
2013-01-24 22:27:00,63.0,61.8,30.16,South,188,9.2,9.2,96,0.00,CLR,SKC,0.01,0.0,WeatherDisplay:10.37,2013-01-25 04:27:00,
2013-01-24 22:32:00,63.0,61.8,30.16,SE,128,9.2,9.2,96,0.00,CLR,SKC,0.01,0.0,WeatherDisplay:10.37,2013-01-25 04:32:00,
2013-01-24 22:37:00,62.8,61.3,30.16,SSE,149,5.8,5.8,95,0.00,CLR,SKC,0.01,0.0,WeatherDisplay:10.37,2013-01-25 04:37:00,
2013-01-24 22:42:00,62.7,61.5,30.16,SSE,159,11.5,11.5,96,0.00,CLR,SKC,0.01,0.0,WeatherDisplay:10.37,2013-01-25 04:42:00,
2013-01-24 22:47:00,62.7,61.5,30.16,SSE,161,8.0,8.0,96,0.00,CLR,SKC,0.01,0.0,WeatherDisplay:10.37,2013-01-25 04:47:00,
2013-01-24 22:52:00,62.6,61.4,30.16,SSE,151,6.9,6.9,96,0.00,CLR,SKC,0.01,0.0,WeatherDisplay:10.37,2013-01-25 04:52:00,
2013-01-24 22:57:00,62.5,61.3,30.15,SSW,200,9.2,9.2,96,0.00,CLR,SKC,0.01,0.0,WeatherDisplay:10.37,2013-01-25 04:57:00,
2013-01-24 23:01:00,62.4,61.3,30.15,SSE,157,3.0,9.0,96,0.00,CLR,SKC,0.01,0.0,WeatherDisplay:10.37,2013-01-25 05:01:00,
2013-01-24 23:02:00,62.4,61.2,30.15,SSE,168,5.8,5.8,96,0.00,CLR,SKC,0.01,0.0,WeatherDisplay:10.37,2013-01-25 05:02:00,
2013-01-24 23:03:00,62.4,61.2,30.15,South,189,6.9,6.9,96,0.00,CLR,SKC,0.01,0.0,WeatherDisplay:10.37,2013-01-25 05:03:00,
2013-01-24 23:08:00,62.3,61.1,30.15,South,178,4.6,4.6,96,0.00,CLR,SKC,0.01,0.0,WeatherDisplay:10.37,2013-01-25 05:08:00,
2013-01-24 23:13:00,62.2,61.0,30.15,SSE,168,6.9,6.9,96,0.00,CLR,SKC,0.01,0.0,WeatherDisplay:10.37,2013-01-25 05:13:00,
2013-01-24 23:18:00,62.2,61.0,30.15,SSE,166,5.8,5.8,96,0.00,CLR,SKC,0.01,0.0,WeatherDisplay:10.37,2013-01-25 05:18:00,
2013-01-24 23:23:00,62.1,60.9,30.15,SSE,159,6.0,6.0,96,0.00,CLR,SKC,0.01,0.0,WeatherDisplay:10.37,2013-01-25 05:23:00,
2013-01-24 23:28:00,62.0,60.8,30.15,SE,131,6.9,6.9,96,0.00,CLR,SKC,0.01,0.0,WeatherDisplay:10.37,2013-01-25 05:28:00,
2013-01-24 23:33:00,62.0,60.8,30.15,SE,131,5.8,5.8,96,0.00,CLR,SKC,0.01,0.0,WeatherDisplay:10.37,2013-01-25 05:33:00,
2013-01-24 23:38:00,61.9,60.7,30.15,SSE,150,7.0,7.0,96,0.00,CLR,SKC,0.01,0.0,WeatherDisplay:10.37,2013-01-25 05:38:00,
2013-01-24 23:43:00,61.8,60.6,30.15,SSW,196,4.6,4.6,96,0.00,CLR,SKC,0.01,0.0,WeatherDisplay:10.37,2013-01-25 05:43:00,
2013-01-24 23:48:00,61.7,60.5,30.15,South,173,6.9,6.9,96,0.00,CLR,SKC,0.01,0.0,WeatherDisplay:10.37,2013-01-25 05:48:00,
2013-01-24 23:53:00,61.7,60.5,30.15,SSE,162,4.6,4.6,96,0.00,CLR,SKC,0.01,0.0,WeatherDisplay:10.37,2013-01-25 05:53:00,
2013-01-24 23:58:00,61.6,60.4,30.15,SSE,153,3.0,3.0,96,0.00,CLR,SKC,0.01,0.0,WeatherDisplay:10.37,2013-01-25 05:58:00,